Time,TemperatureF,DewpointF,PressureIn,WindDirection,WindDirectionDegrees,WindSpeedMPH,WindSpeedGustMPH,Humidity,HourlyPrecipIn,Conditions,Clouds,dailyrainin,SoftwareType,DateUTC
2013-02-10 00:00:00,22.5,15.8,29.80,ESE,113,0.7,0.9,75,0.00,,,0.00,WUHU216HW,2013-02-10 05:00:00,
2013-02-10 00:01:00,22.7,15.9,29.80,SE,135,0.7,0.9,75,0.00,,,0.00,WUHU216HW,2013-02-10 05:01:00,
2013-02-10 00:06:00,22.7,16.2,29.80,SE,135,0.0,1.1,76,0.00,,,0.00,WUHU216HW,2013-02-10 05:06:00,
2013-02-10 00:11:00,22.7,16.2,29.80,SE,135,0.0,1.1,76,0.00,,,0.00,WUHU216HW,2013-02-10 05:11:00,
2013-02-10 00:16:00,22.5,16.0,29.80,WSW,248,0.4,1.1,76,0.00,,,0.00,WUHU216HW,2013-02-10 05:16:00,
2013-02-10 00:21:00,21.6,14.9,29.80,WSW,248,0.0,1.1,75,0.00,,,0.00,WUHU216HW,2013-02-10 05:21:00,
2013-02-10 00:26:00,20.9,13.9,29.80,WNW,293,0.0,0.7,74,0.00,,,0.00,WUHU216HW,2013-02-10 05:26:00,
2013-02-10 00:31:00,21.1,14.3,29.80,NNW,338,0.0,0.7,75,0.00,,,0.00,WUHU216HW,2013-02-10 05:31:00,
2013-02-10 00:36:00,21.2,15.1,29.80,NNW,338,0.0,0.0,77,0.00,,,0.00,WUHU216HW,2013-02-10 05:36:00,
2013-02-10 00:41:00,21.6,15.5,29.80,NNW,338,0.0,0.0,77,0.00,,,0.00,WUHU216HW,2013-02-10 05:41:00,
2013-02-10 00:46:00,21.8,15.7,29.81,SSW,203,0.4,0.7,77,0.00,,,0.00,WUHU216HW,2013-02-10 05:46:00,
2013-02-10 00:51:00,21.8,15.7,29.81,WSW,248,0.4,1.1,77,0.00,,,0.00,WUHU216HW,2013-02-10 05:51:00,
2013-02-10 00:56:00,20.7,14.0,29.81,WSW,248,0.0,1.1,75,0.00,,,0.00,WUHU216HW,2013-02-10 05:56:00,
2013-02-10 01:01:00,20.2,13.4,29.81,WSW,248,1.1,1.1,75,0.00,,,0.00,WUHU216HW,2013-02-10 06:01:00,
2013-02-10 01:06:00,20.7,14.9,29.81,WSW,248,0.0,1.1,78,0.00,,,0.00,WUHU216HW,2013-02-10 06:06:00,
2013-02-10 01:11:00,20.9,14.4,29.81,WSW,248,0.0,1.1,76,0.00,,,0.00,WUHU216HW,2013-02-10 06:11:00,
2013-02-10 01:16:00,20.9,14.8,29.81,SSW,203,0.0,0.0,77,0.00,,,0.00,WUHU216HW,2013-02-10 06:16:00,
2013-02-10 01:21:00,21.6,15.8,29.81,SSW,203,0.0,0.0,78,0.00,,,0.00,WUHU216HW,2013-02-10 06:21:00,
2013-02-10 01:26:00,21.8,15.9,29.81,SSE,158,0.0,0.0,78,0.00,,,0.00,WUHU216HW,2013-02-10 06:26:00,
2013-02-10 01:31:00,21.4,15.3,29.81,SSE,158,0.0,0.0,77,0.00,,,0.00,WUHU216HW,2013-02-10 06:31:00,
2013-02-10 01:36:00,21.1,15.2,29.81,SW,225,0.0,0.0,78,0.00,,,0.00,WUHU216HW,2013-02-10 06:36:00,
2013-02-10 01:41:00,20.7,14.2,29.81,WSW,248,0.0,0.0,76,0.00,,,0.00,WUHU216HW,2013-02-10 06:41:00,
2013-02-10 01:46:00,20.3,14.2,29.81,SE,135,0.7,0.7,77,0.00,,,0.00,WUHU216HW,2013-02-10 06:46:00,
2013-02-10 01:51:00,20.3,14.5,29.81,SE,135,0.4,0.9,78,0.00,,,0.00,WUHU216HW,2013-02-10 06:51:00,
2013-02-10 01:56:00,20.3,14.5,29.81,SE,135,0.9,0.9,78,0.00,,,0.00,WUHU216HW,2013-02-10 06:56:00,
2013-02-10 02:01:00,20.5,15.0,29.81,SE,135,0.7,1.3,79,0.00,,,0.00,WUHU216HW,2013-02-10 07:01:00,
2013-02-10 02:06:00,20.9,15.4,29.81,SE,135,0.0,1.3,79,0.00,,,0.00,WUHU216HW,2013-02-10 07:06:00,
2013-02-10 02:11:00,20.9,15.4,29.81,SE,135,0.7,0.7,79,0.00,,,0.00,WUHU216HW,2013-02-10 07:11:00,
2013-02-10 02:16:00,20.9,15.0,29.81,SW,225,0.9,1.1,78,0.00,,,0.00,WUHU216HW,2013-02-10 07:16:00,
2013-02-10 02:21:00,20.3,15.1,29.81,SW,225,1.1,1.8,80,0.00,,,0.00,WUHU216HW,2013-02-10 07:21:00,
2013-02-10 02:26:00,20.5,15.3,29.81,SSW,203,0.0,1.8,80,0.00,,,0.00,WUHU216HW,2013-02-10 07:26:00,
2013-02-10 02:31:00,20.7,15.2,29.81,SSW,203,0.0,1.1,79,0.00,,,0.00,WUHU216HW,2013-02-10 07:31:00,
2013-02-10 02:36:00,20.7,15.2,29.81,SE,135,0.4,0.4,79,0.00,,,0.00,WUHU216HW,2013-02-10 07:36:00,
2013-02-10 02:41:00,20.7,15.2,29.81,SSE,158,0.2,0.9,79,0.00,,,0.00,WUHU216HW,2013-02-10 07:41:00,
2013-02-10 02:46:00,20.5,14.7,29.81,SW,225,0.0,0.9,78,0.00,,,0.00,WUHU216HW,2013-02-10 07:46:00,
2013-02-10 02:51:00,20.5,15.3,29.81,SE,135,0.9,0.9,80,0.00,,,0.00,WUHU216HW,2013-02-10 07:51:00,
2013-02-10 02:56:00,20.7,15.5,29.81,SE,135,0.4,0.9,80,0.00,,,0.00,WUHU216HW,2013-02-10 07:56:00,
2013-02-10 03:01:00,20.5,15.0,29.81,SE,135,0.0,0.9,79,0.00,,,0.00,WUHU216HW,2013-02-10 08:01:00,
2013-02-10 03:06:00,20.3,14.5,29.81,ESE,113,0.0,0.9,78,0.00,,,0.00,WUHU216HW,2013-02-10 08:06:00,
2013-02-10 03:11:00,19.1,13.2,29.81,North,0,0.0,1.6,78,0.00,,,0.00,WUHU216HW,2013-02-10 08:11:00,
2013-02-10 03:16:00,18.2,12.7,29.81,North,0,0.2,1.6,79,0.00,,,0.00,WUHU216HW,2013-02-10 08:16:00,
2013-02-10 03:21:00,17.8,12.9,29.80,North,0,0.0,1.6,81,0.00,,,0.00,WUHU216HW,2013-02-10 08:21:00,
2013-02-10 03:26:00,17.6,13.2,29.81,North,0,0.4,1.6,83,0.00,,,0.00,WUHU216HW,2013-02-10 08:26:00,
2013-02-10 03:31:00,18.2,14.0,29.81,NNW,338,0.4,0.4,84,0.00,,,0.00,WUHU216HW,2013-02-10 08:31:00,
2013-02-10 03:36:00,19.1,14.9,29.80,West,270,0.4,0.9,84,0.00,,,0.00,WUHU216HW,2013-02-10 08:36:00,
2013-02-10 03:41:00,19.8,15.7,29.80,West,270,0.4,0.9,84,0.00,,,0.00,WUHU216HW,2013-02-10 08:41:00,
2013-02-10 03:46:00,20.3,16.2,29.80,West,270,1.6,1.6,84,0.00,,,0.00,WUHU216HW,2013-02-10 08:46:00,
2013-02-10 03:51:00,20.5,16.1,29.80,West,270,0.4,1.6,83,0.00,,,0.00,WUHU216HW,2013-02-10 08:51:00,
2013-02-10 03:56:00,20.5,15.8,29.80,WSW,248,0.9,1.6,82,0.00,,,0.00,WUHU216HW,2013-02-10 08:56:00,
2013-02-10 04:01:00,20.0,15.0,29.80,West,270,0.0,1.1,81,0.00,,,0.00,WUHU216HW,2013-02-10 09:01:00,
2013-02-10 04:06:00,19.8,15.1,29.80,WNW,293,0.0,1.1,82,0.00,,,0.00,WUHU216HW,2013-02-10 09:06:00,
2013-02-10 04:11:00,19.8,15.1,29.81,WNW,293,0.0,0.7,82,0.00,,,0.00,WUHU216HW,2013-02-10 09:11:00,
2013-02-10 04:16:00,19.8,15.1,29.81,ESE,113,0.0,0.4,82,0.00,,,0.00,WUHU216HW,2013-02-10 09:16:00,
2013-02-10 04:21:00,20.2,15.5,29.81,ESE,113,0.0,0.4,82,0.00,,,0.00,WUHU216HW,2013-02-10 09:21:00,
2013-02-10 04:26:00,20.3,15.7,29.81,ESE,113,0.0,0.4,82,0.00,,,0.00,WUHU216HW,2013-02-10 09:26:00,
2013-02-10 04:31:00,20.5,15.8,29.81,SE,135,0.0,0.4,82,0.00,,,0.00,WUHU216HW,2013-02-10 09:31:00,
2013-02-10 04:36:00,20.2,15.2,29.81,WSW,248,0.7,1.1,81,0.00,,,0.00,WUHU216HW,2013-02-10 09:36:00,
2013-02-10 04:41:00,19.3,14.0,29.82,WSW,248,0.0,1.1,80,0.00,,,0.00,WUHU216HW,2013-02-10 09:41:00,
2013-02-10 04:46:00,19.3,14.6,29.82,SW,225,0.0,0.7,82,0.00,,,0.00,WUHU216HW,2013-02-10 09:46:00,
2013-02-10 04:51:00,19.6,14.9,29.82,SE,135,0.0,0.0,82,0.00,,,0.00,WUHU216HW,2013-02-10 09:51:00,
2013-02-10 04:56:00,19.6,14.9,29.82,SE,135,0.0,0.0,82,0.00,,,0.00,WUHU216HW,2013-02-10 09:56:00,
2013-02-10 05:01:00,19.8,15.1,29.82,SE,135,0.0,0.0,82,0.00,,,0.00,WUHU216HW,2013-02-10 10:01:00,
2013-02-10 05:06:00,20.2,15.5,29.82,SE,135,0.0,0.0,82,0.00,,,0.00,WUHU216HW,2013-02-10 10:06:00,
2013-02-10 05:11:00,20.5,16.1,29.82,SE,135,0.0,0.4,83,0.00,,,0.00,WUHU216HW,2013-02-10 10:11:00,
2013-02-10 05:16:00,20.2,15.5,29.82,SE,135,0.0,0.4,82,0.00,,,0.00,WUHU216HW,2013-02-10 10:16:00,
2013-02-10 05:21:00,19.4,14.5,29.82,WSW,248,0.0,0.2,81,0.00,,,0.00,WUHU216HW,2013-02-10 10:21:00,
2013-02-10 05:26:00,19.3,14.6,29.82,WSW,248,0.7,0.9,82,0.00,,,0.00,WUHU216HW,2013-02-10 10:26:00,
2013-02-10 05:31:00,19.1,14.4,29.82,WSW,248,0.9,1.1,82,0.00,,,0.00,WUHU216HW,2013-02-10 10:31:00,
2013-02-10 05:36:00,19.4,14.8,29.82,West,270,1.1,1.1,82,0.00,,,0.00,WUHU216HW,2013-02-10 10:36:00,
2013-02-10 05:41:00,19.3,14.3,29.82,West,270,0.2,1.1,81,0.00,,,0.00,WUHU216HW,2013-02-10 10:41:00,
2013-02-10 05:46:00,18.4,13.4,29.82,NNW,338,2.0,2.0,81,0.00,,,0.00,WUHU216HW,2013-02-10 10:46:00,
2013-02-10 05:51:00,18.2,13.5,29.82,NNW,338,1.1,2.0,82,0.00,,,0.00,WUHU216HW,2013-02-10 10:51:00,
2013-02-10 05:56:00,18.5,14.4,29.82,NNW,338,0.0,2.0,84,0.00,,,0.00,WUHU216HW,2013-02-10 10:56:00,
2013-02-10 06:01:00,19.3,15.1,29.82,NNW,338,0.0,2.0,84,0.00,,,0.00,WUHU216HW,2013-02-10 11:01:00,
2013-02-10 06:06:00,19.6,15.2,29.83,SSW,203,0.9,1.1,83,0.00,,,0.00,WUHU216HW,2013-02-10 11:06:00,
2013-02-10 06:11:00,19.6,14.9,29.83,SSE,158,0.7,1.8,82,0.00,,,0.00,WUHU216HW,2013-02-10 11:11:00,
2013-02-10 06:16:00,19.8,15.4,29.83,SW,225,0.7,1.8,83,0.00,,,0.00,WUHU216HW,2013-02-10 11:16:00,
2013-02-10 06:21:00,20.0,15.6,29.83,SE,135,1.1,2.0,83,0.00,,,0.00,WUHU216HW,2013-02-10 11:21:00,
2013-02-10 06:26:00,19.8,15.1,29.84,SE,135,1.8,2.5,82,0.00,,,0.00,WUHU216HW,2013-02-10 11:26:00,
2013-02-10 06:31:00,19.6,14.9,29.84,SSE,158,3.1,3.6,82,0.00,,,0.00,WUHU216HW,2013-02-10 11:31:00,
2013-02-10 06:36:00,19.6,15.2,29.84,WSW,248,2.0,3.6,83,0.00,,,0.00,WUHU216HW,2013-02-10 11:36:00,
2013-02-10 06:41:00,20.0,15.3,29.84,SE,135,0.9,3.4,82,0.00,,,0.00,WUHU216HW,2013-02-10 11:41:00,
2013-02-10 06:46:00,20.2,15.5,29.84,ESE,113,0.2,2.0,82,0.00,,,0.00,WUHU216HW,2013-02-10 11:46:00,
2013-02-10 06:51:00,19.6,14.7,29.84,ENE,68,0.7,1.3,81,0.00,,,0.00,WUHU216HW,2013-02-10 11:51:00,
2013-02-10 06:56:00,18.4,13.4,29.84,NNE,23,1.3,3.1,81,0.00,,,0.00,WUHU216HW,2013-02-10 11:56:00,
2013-02-10 07:01:00,17.8,12.9,29.84,NNE,23,1.1,3.1,81,0.00,,,0.00,WUHU216HW,2013-02-10 12:01:00,
2013-02-10 07:06:00,17.1,12.3,29.85,North,0,0.4,2.5,81,0.00,,,0.00,WUHU216HW,2013-02-10 12:06:00,
2013-02-10 07:11:00,17.3,12.9,29.85,NNW,338,0.0,2.5,83,0.00,,,0.00,WUHU216HW,2013-02-10 12:11:00,
2013-02-10 07:16:00,17.8,13.4,29.85,NNW,338,0.2,0.4,83,0.00,,,0.00,WUHU216HW,2013-02-10 12:16:00,
2013-02-10 07:21:00,18.4,14.5,29.85,WNW,293,1.6,2.2,85,0.00,,,0.00,WUHU216HW,2013-02-10 12:21:00,
2013-02-10 07:26:00,19.1,14.9,29.86,West,270,1.3,2.5,84,0.00,,,0.00,WUHU216HW,2013-02-10 12:26:00,
2013-02-10 07:31:00,19.6,15.5,29.86,WSW,248,1.1,2.5,84,0.00,,,0.00,WUHU216HW,2013-02-10 12:31:00,
2013-02-10 07:36:00,20.2,16.0,29.86,WSW,248,1.1,1.3,84,0.00,,,0.00,WUHU216HW,2013-02-10 12:36:00,
2013-02-10 07:41:00,20.3,16.2,29.86,WSW,248,1.3,1.3,84,0.00,,,0.00,WUHU216HW,2013-02-10 12:41:00,
2013-02-10 07:46:00,20.7,16.6,29.86,SW,225,0.4,1.6,84,0.00,,,0.00,WUHU216HW,2013-02-10 12:46:00,
2013-02-10 07:51:00,21.1,17.2,29.86,SW,225,0.4,1.6,85,0.00,,,0.00,WUHU216HW,2013-02-10 12:51:00,
2013-02-10 07:56:00,21.4,17.3,29.86,ESE,113,0.2,1.1,84,0.00,,,0.00,WUHU216HW,2013-02-10 12:56:00,
2013-02-10 08:01:00,21.6,17.5,29.86,WSW,248,0.0,0.7,84,0.00,,,0.00,WUHU216HW,2013-02-10 13:01:00,
2013-02-10 08:06:00,22.0,18.1,29.86,SW,225,0.4,1.3,85,0.00,,,0.00,WUHU216HW,2013-02-10 13:06:00,
2013-02-10 08:11:00,22.7,18.5,29.86,SW,225,0.0,1.3,84,0.00,,,0.00,WUHU216HW,2013-02-10 13:11:00,
2013-02-10 08:16:00,23.0,18.9,29.86,SW,225,1.8,1.8,84,0.00,,,0.00,WUHU216HW,2013-02-10 13:16:00,
2013-02-10 08:21:00,23.4,19.0,29.86,SSW,203,0.4,2.2,83,0.00,,,0.00,WUHU216HW,2013-02-10 13:21:00,
2013-02-10 08:26:00,23.9,19.8,29.86,SSW,203,1.6,2.2,84,0.00,,,0.00,WUHU216HW,2013-02-10 13:26:00,
2013-02-10 08:31:00,24.5,20.3,29.86,SSE,158,2.5,2.5,84,0.00,,,0.00,WUHU216HW,2013-02-10 13:31:00,
2013-02-10 08:36:00,25.0,20.6,29.86,SW,225,2.2,3.8,83,0.00,,,0.00,WUHU216HW,2013-02-10 13:36:00,
2013-02-10 08:41:00,25.6,21.1,29.86,SSW,203,1.8,3.8,83,0.00,,,0.00,WUHU216HW,2013-02-10 13:41:00,
2013-02-10 08:46:00,26.1,21.6,29.86,SSE,158,4.0,4.0,83,0.00,,,0.00,WUHU216HW,2013-02-10 13:46:00,
2013-02-10 08:51:00,26.6,22.2,29.86,SW,225,1.6,4.0,83,0.00,,,0.00,WUHU216HW,2013-02-10 13:51:00,
2013-02-10 08:56:00,27.4,22.9,29.86,SW,225,2.5,4.0,83,0.00,,,0.00,WUHU216HW,2013-02-10 13:56:00,
2013-02-10 09:01:00,27.7,22.9,29.86,SSW,203,1.6,4.0,82,0.00,,,0.00,WUHU216HW,2013-02-10 14:01:00,
2013-02-10 09:06:00,28.3,23.4,29.86,South,180,2.0,3.4,82,0.00,,,0.00,WUHU216HW,2013-02-10 14:06:00,
2013-02-10 09:11:00,28.6,23.5,29.86,ESE,113,1.6,2.9,81,0.00,,,0.00,WUHU216HW,2013-02-10 14:11:00,
2013-02-10 09:16:00,29.2,23.8,29.86,ESE,113,1.3,2.9,80,0.00,,,0.00,WUHU216HW,2013-02-10 14:16:00,
2013-02-10 09:21:00,29.5,24.1,29.86,SSE,158,0.4,2.9,80,0.00,,,0.00,WUHU216HW,2013-02-10 14:21:00,
2013-02-10 09:26:00,30.2,24.8,29.86,SW,225,1.1,2.5,80,0.00,,,0.00,WUHU216HW,2013-02-10 14:26:00,
2013-02-10 09:31:00,30.8,25.0,29.86,SE,135,0.9,2.7,79,0.00,,,0.00,WUHU216HW,2013-02-10 14:31:00,
2013-02-10 09:36:00,31.3,25.6,29.86,SE,135,2.7,2.7,79,0.00,,,0.00,WUHU216HW,2013-02-10 14:36:00,
2013-02-10 09:41:00,31.5,25.5,29.86,SE,135,1.3,2.7,78,0.00,,,0.00,WUHU216HW,2013-02-10 14:41:00,
2013-02-10 09:46:00,32.0,26.0,29.86,SE,135,1.8,2.7,78,0.00,,,0.00,WUHU216HW,2013-02-10 14:46:00,
2013-02-10 09:51:00,32.6,26.5,29.85,ESE,113,1.6,2.2,78,0.00,,,0.00,WUHU216HW,2013-02-10 14:51:00,
2013-02-10 09:56:00,32.8,26.3,29.85,SE,135,1.3,2.9,77,0.00,,,0.00,WUHU216HW,2013-02-10 14:56:00,
2013-02-10 10:01:00,32.9,26.2,29.85,SSW,203,1.8,3.4,76,0.00,,,0.00,WUHU216HW,2013-02-10 15:01:00,
2013-02-10 10:06:00,33.5,26.6,29.85,SE,135,1.3,3.4,76,0.00,,,0.00,WUHU216HW,2013-02-10 15:06:00,
2013-02-10 10:11:00,33.8,27.0,29.85,SSE,158,2.0,2.7,76,0.00,,,0.00,WUHU216HW,2013-02-10 15:11:00,
2013-02-10 10:16:00,34.2,27.0,29.85,SSE,158,2.5,2.7,75,0.00,,,0.00,WUHU216HW,2013-02-10 15:16:00,
2013-02-10 10:21:00,34.6,27.4,29.85,SSE,158,1.8,2.7,75,0.00,,,0.00,WUHU216HW,2013-02-10 15:21:00,
2013-02-10 10:26:00,34.9,27.4,29.85,SSE,158,1.6,2.7,74,0.00,,,0.00,WUHU216HW,2013-02-10 15:26:00,
2013-02-10 10:31:00,35.3,27.7,29.84,SSE,158,1.6,2.5,74,0.00,,,0.00,WUHU216HW,2013-02-10 15:31:00,
2013-02-10 10:36:00,35.6,28.1,29.84,SSE,158,1.8,2.5,74,0.00,,,0.00,WUHU216HW,2013-02-10 15:36:00,
2013-02-10 10:41:00,36.4,28.5,29.84,SE,135,1.1,2.5,73,0.00,,,0.00,WUHU216HW,2013-02-10 15:41:00,
2013-02-10 10:46:00,36.9,29.1,29.84,SSE,158,2.5,2.9,73,0.00,,,0.00,WUHU216HW,2013-02-10 15:46:00,
2013-02-10 10:51:00,37.3,29.1,29.84,SE,135,1.3,2.9,72,0.00,,,0.00,WUHU216HW,2013-02-10 15:51:00,
2013-02-10 10:56:00,37.8,29.3,29.83,SSE,158,4.3,4.3,71,0.00,,,0.00,WUHU216HW,2013-02-10 15:56:00,
2013-02-10 11:01:00,37.8,27.8,29.83,South,180,4.5,4.7,67,0.00,,,0.00,WUHU216HW,2013-02-10 16:01:00,
2013-02-10 11:06:00,37.8,26.3,29.82,SW,225,5.4,6.3,63,0.00,,,0.00,WUHU216HW,2013-02-10 16:06:00,
2013-02-10 11:11:00,38.0,27.2,29.82,SW,225,3.6,6.5,65,0.00,,,0.00,WUHU216HW,2013-02-10 16:11:00,
2013-02-10 11:16:00,38.2,27.0,29.82,SW,225,5.4,6.5,64,0.00,,,0.00,WUHU216HW,2013-02-10 16:16:00,
2013-02-10 11:21:00,39.2,28.0,29.81,SE,135,3.8,5.4,64,0.00,,,0.00,WUHU216HW,2013-02-10 16:21:00,
2013-02-10 11:26:00,40.0,28.4,29.81,SSE,158,4.9,5.4,63,0.00,,,0.00,WUHU216HW,2013-02-10 16:26:00,
2013-02-10 11:31:00,40.1,28.1,29.82,SW,225,4.7,5.4,62,0.00,,,0.00,WUHU216HW,2013-02-10 16:31:00,
2013-02-10 11:36:00,40.0,26.7,29.82,SW,225,4.7,5.4,59,0.00,,,0.00,WUHU216HW,2013-02-10 16:36:00,
2013-02-10 11:41:00,40.0,27.2,29.82,SSW,203,2.9,5.1,60,0.00,,,0.00,WUHU216HW,2013-02-10 16:41:00,
2013-02-10 11:46:00,40.0,27.5,29.81,SSW,203,4.7,4.7,61,0.00,,,0.00,WUHU216HW,2013-02-10 16:46:00,
2013-02-10 11:51:00,39.8,26.1,29.81,SW,225,3.4,4.7,58,0.00,,,0.00,WUHU216HW,2013-02-10 16:51:00,
2013-02-10 11:56:00,40.0,26.7,29.81,South,180,3.6,4.7,59,0.00,,,0.00,WUHU216HW,2013-02-10 16:56:00,
2013-02-10 12:01:00,40.0,25.4,29.81,SW,225,4.3,4.5,56,0.00,,,0.00,WUHU216HW,2013-02-10 17:01:00,
2013-02-10 12:06:00,40.9,26.3,29.81,SE,135,4.5,6.3,56,0.00,,,0.00,WUHU216HW,2013-02-10 17:06:00,
2013-02-10 12:11:00,41.8,25.8,29.81,WSW,248,1.1,6.5,53,0.00,,,0.00,WUHU216HW,2013-02-10 17:11:00,
2013-02-10 12:16:00,42.1,27.0,29.80,ESE,113,3.6,6.5,55,0.00,,,0.00,WUHU216HW,2013-02-10 17:16:00,
2013-02-10 12:21:00,42.8,26.8,29.80,ESE,113,3.8,5.4,53,0.00,,,0.00,WUHU216HW,2013-02-10 17:21:00,
2013-02-10 12:26:00,43.6,28.0,29.80,SE,135,3.8,5.4,54,0.00,,,0.00,WUHU216HW,2013-02-10 17:26:00,
2013-02-10 12:31:00,44.5,28.4,29.79,South,180,3.4,5.4,53,0.00,,,0.00,WUHU216HW,2013-02-10 17:31:00,
2013-02-10 12:36:00,44.6,28.5,29.79,SW,225,3.1,5.4,53,0.00,,,0.00,WUHU216HW,2013-02-10 17:36:00,
2013-02-10 12:41:00,44.6,28.5,29.78,SE,135,3.1,4.3,53,0.00,,,0.00,WUHU216HW,2013-02-10 17:41:00,
2013-02-10 12:46:00,44.6,28.5,29.78,SSW,203,2.7,4.3,53,0.00,,,0.00,WUHU216HW,2013-02-10 17:46:00,
2013-02-10 12:51:00,44.6,28.1,29.78,SE,135,3.4,4.0,52,0.00,,,0.00,WUHU216HW,2013-02-10 17:51:00,
2013-02-10 12:56:00,44.6,28.1,29.78,SE,135,4.0,4.5,52,0.00,,,0.00,WUHU216HW,2013-02-10 17:56:00,
2013-02-10 13:01:00,44.6,27.6,29.78,SW,225,6.0,6.0,51,0.00,,,0.00,WUHU216HW,2013-02-10 18:01:00,
2013-02-10 13:06:00,44.5,27.5,29.77,SSW,203,4.0,6.0,51,0.00,,,0.00,WUHU216HW,2013-02-10 18:06:00,
2013-02-10 13:11:00,44.3,27.3,29.77,SSE,158,1.8,6.0,51,0.00,,,0.00,WUHU216HW,2013-02-10 18:11:00,
2013-02-10 13:16:00,44.3,27.3,29.76,SSE,158,3.4,4.5,51,0.00,,,0.00,WUHU216HW,2013-02-10 18:16:00,
2013-02-10 13:21:00,44.6,27.6,29.76,SSE,158,4.0,5.4,51,0.00,,,0.00,WUHU216HW,2013-02-10 18:21:00,
2013-02-10 13:26:00,44.8,27.8,29.75,SE,135,3.8,5.4,51,0.00,,,0.00,WUHU216HW,2013-02-10 18:26:00,
2013-02-10 13:31:00,44.6,27.6,29.75,SSE,158,2.0,6.3,51,0.00,,,0.00,WUHU216HW,2013-02-10 18:31:00,
2013-02-10 13:36:00,44.6,27.2,29.74,East,90,3.4,6.3,50,0.00,,,0.00,WUHU216HW,2013-02-10 18:36:00,
2013-02-10 13:41:00,44.3,26.8,29.74,SSE,158,4.7,5.4,50,0.00,,,0.00,WUHU216HW,2013-02-10 18:41:00,
2013-02-10 13:46:00,44.5,27.5,29.74,SSE,158,4.7,4.7,51,0.00,,,0.00,WUHU216HW,2013-02-10 18:46:00,
2013-02-10 13:51:00,44.5,27.5,29.73,SW,225,3.1,4.7,51,0.00,,,0.00,WUHU216HW,2013-02-10 18:51:00,
2013-02-10 13:56:00,44.5,27.0,29.73,SSW,203,4.0,5.4,50,0.00,,,0.00,WUHU216HW,2013-02-10 18:56:00,
2013-02-10 14:01:00,44.3,26.3,29.73,SE,135,2.5,5.4,49,0.00,,,0.00,WUHU216HW,2013-02-10 19:01:00,
2013-02-10 14:06:00,44.1,25.7,29.73,ESE,113,3.6,5.4,48,0.00,,,0.00,WUHU216HW,2013-02-10 19:06:00,
2013-02-10 14:11:00,43.9,25.5,29.72,SSW,203,2.7,3.6,48,0.00,,,0.00,WUHU216HW,2013-02-10 19:11:00,
2013-02-10 14:16:00,43.9,26.0,29.72,SE,135,4.3,5.4,49,0.00,,,0.00,WUHU216HW,2013-02-10 19:16:00,
2013-02-10 14:21:00,43.9,26.0,29.72,SE,135,3.8,6.7,49,0.00,,,0.00,WUHU216HW,2013-02-10 19:21:00,
2013-02-10 14:26:00,44.5,25.9,29.73,SSE,158,3.6,6.7,48,0.00,,,0.00,WUHU216HW,2013-02-10 19:26:00,
2013-02-10 14:31:00,44.6,26.1,29.73,SE,135,3.4,4.9,48,0.00,,,0.00,WUHU216HW,2013-02-10 19:31:00,
2013-02-10 14:36:00,44.6,25.6,29.72,SE,135,3.4,6.0,47,0.00,,,0.00,WUHU216HW,2013-02-10 19:36:00,
2013-02-10 14:41:00,44.8,25.8,29.72,SSE,158,3.4,6.0,47,0.00,,,0.00,WUHU216HW,2013-02-10 19:41:00,
2013-02-10 14:46:00,44.5,25.4,29.72,ESE,113,3.4,5.4,47,0.00,,,0.00,WUHU216HW,2013-02-10 19:46:00,
2013-02-10 14:51:00,44.3,25.2,29.72,SE,135,3.4,5.4,47,0.00,,,0.00,WUHU216HW,2013-02-10 19:51:00,
2013-02-10 14:56:00,44.3,25.7,29.72,SSW,203,4.3,4.5,48,0.00,,,0.00,WUHU216HW,2013-02-10 19:56:00,
2013-02-10 15:01:00,44.5,25.4,29.72,SE,135,3.1,4.7,47,0.00,,,0.00,WUHU216HW,2013-02-10 20:01:00,
2013-02-10 15:06:00,44.8,25.8,29.72,SSE,158,5.4,5.8,47,0.00,,,0.00,WUHU216HW,2013-02-10 20:06:00,
2013-02-10 15:11:00,45.0,25.9,29.71,SE,135,4.0,5.8,47,0.00,,,0.00,WUHU216HW,2013-02-10 20:11:00,
2013-02-10 15:16:00,45.0,25.4,29.71,SSW,203,3.6,5.8,46,0.00,,,0.00,WUHU216HW,2013-02-10 20:16:00,
2013-02-10 15:21:00,45.0,25.4,29.71,SSE,158,4.0,7.2,46,0.00,,,0.00,WUHU216HW,2013-02-10 20:21:00,
2013-02-10 15:26:00,45.0,25.4,29.71,SSW,203,3.4,7.2,46,0.00,,,0.00,WUHU216HW,2013-02-10 20:26:00,
2013-02-10 15:31:00,44.8,25.2,29.71,ESE,113,5.8,8.3,46,0.00,,,0.00,WUHU216HW,2013-02-10 20:31:00,
2013-02-10 15:36:00,44.8,25.2,29.71,ESE,113,4.0,8.3,46,0.00,,,0.00,WUHU216HW,2013-02-10 20:36:00,
2013-02-10 15:41:00,44.5,24.3,29.70,SE,135,4.9,6.3,45,0.00,,,0.00,WUHU216HW,2013-02-10 20:41:00,
2013-02-10 15:46:00,44.5,24.8,29.71,SE,135,4.7,6.3,46,0.00,,,0.00,WUHU216HW,2013-02-10 20:46:00,
2013-02-10 15:51:00,44.3,24.7,29.71,SE,135,5.1,5.4,46,0.00,,,0.00,WUHU216HW,2013-02-10 20:51:00,
2013-02-10 15:56:00,43.9,24.4,29.71,South,180,6.5,6.7,46,0.00,,,0.00,WUHU216HW,2013-02-10 20:56:00,
2013-02-10 16:01:00,43.7,24.2,29.71,SE,135,7.8,7.8,46,0.00,,,0.00,WUHU216HW,2013-02-10 21:01:00,
2013-02-10 16:06:00,43.6,24.0,29.71,SE,135,4.3,7.8,46,0.00,,,0.00,WUHU216HW,2013-02-10 21:06:00,
2013-02-10 16:11:00,43.4,23.9,29.71,SE,135,6.3,6.9,46,0.00,,,0.00,WUHU216HW,2013-02-10 21:11:00,
2013-02-10 16:16:00,43.0,23.6,29.71,SE,135,4.9,6.3,46,0.00,,,0.00,WUHU216HW,2013-02-10 21:16:00,
2013-02-10 16:21:00,42.7,23.2,29.71,SSE,158,3.4,6.3,46,0.00,,,0.00,WUHU216HW,2013-02-10 21:21:00,
2013-02-10 16:26:00,42.7,23.8,29.70,SSE,158,3.6,4.9,47,0.00,,,0.00,WUHU216HW,2013-02-10 21:26:00,
2013-02-10 16:31:00,42.3,23.4,29.70,SE,135,4.7,6.3,47,0.00,,,0.00,WUHU216HW,2013-02-10 21:31:00,
2013-02-10 16:36:00,42.3,23.4,29.70,SE,135,6.0,6.3,47,0.00,,,0.00,WUHU216HW,2013-02-10 21:36:00,
2013-02-10 16:41:00,42.1,23.8,29.70,SE,135,5.4,6.0,48,0.00,,,0.00,WUHU216HW,2013-02-10 21:41:00,
2013-02-10 16:46:00,41.8,23.4,29.70,South,180,4.7,6.0,48,0.00,,,0.00,WUHU216HW,2013-02-10 21:46:00,
2013-02-10 16:51:00,41.6,23.2,29.69,SSE,158,5.6,5.6,48,0.00,,,0.00,WUHU216HW,2013-02-10 21:51:00,
2013-02-10 16:57:00,41.4,23.6,29.69,South,180,3.8,6.3,49,0.00,,,0.00,WUHU216HW,2013-02-10 21:57:00,
2013-02-10 17:02:00,41.4,23.6,29.69,South,180,6.7,6.7,49,0.00,,,0.00,WUHU216HW,2013-02-10 22:02:00,
2013-02-10 17:06:00,41.2,23.4,29.70,SSE,158,5.4,6.7,49,0.00,,,0.00,WUHU216HW,2013-02-10 22:06:00,
2013-02-10 17:12:00,41.0,23.2,29.70,SSE,158,4.5,6.7,49,0.00,,,0.00,WUHU216HW,2013-02-10 22:12:00,
2013-02-10 17:17:00,40.9,23.0,29.70,SE,135,6.3,6.7,49,0.00,,,0.00,WUHU216HW,2013-02-10 22:17:00,
2013-02-10 17:22:00,40.9,23.0,29.70,SSE,158,4.7,6.7,49,0.00,,,0.00,WUHU216HW,2013-02-10 22:22:00,
2013-02-10 17:27:00,40.7,23.0,29.70,SSE,158,6.9,6.9,49,0.00,,,0.00,WUHU216HW,2013-02-10 22:27:00,
2013-02-10 17:32:00,40.5,22.8,29.70,SSW,203,4.0,6.9,49,0.00,,,0.00,WUHU216HW,2013-02-10 22:32:00,
2013-02-10 17:37:00,40.5,22.8,29.70,SSE,158,4.7,6.9,49,0.00,,,0.00,WUHU216HW,2013-02-10 22:37:00,
2013-02-10 17:42:00,40.3,22.6,29.70,ESE,113,4.3,5.1,49,0.00,,,0.00,WUHU216HW,2013-02-10 22:42:00,
2013-02-10 17:47:00,40.1,22.4,29.69,South,180,4.7,5.4,49,0.00,,,0.00,WUHU216HW,2013-02-10 22:47:00,
2013-02-10 17:52:00,40.1,22.4,29.70,SE,135,2.9,5.4,49,0.00,,,0.00,WUHU216HW,2013-02-10 22:52:00,
2013-02-10 17:57:00,40.0,22.2,29.70,SE,135,5.8,5.8,49,0.00,,,0.00,WUHU216HW,2013-02-10 22:57:00,
2013-02-10 18:02:00,39.8,22.6,29.70,SE,135,4.0,5.8,50,0.00,,,0.00,WUHU216HW,2013-02-10 23:02:00,
2013-02-10 18:07:00,39.8,22.6,29.70,SSE,158,4.7,5.8,50,0.00,,,0.00,WUHU216HW,2013-02-10 23:07:00,
2013-02-10 18:12:00,39.6,22.5,29.70,SE,135,4.3,5.4,50,0.00,,,0.00,WUHU216HW,2013-02-10 23:12:00,
2013-02-10 18:17:00,39.4,22.3,29.70,SSE,158,4.5,5.1,50,0.00,,,0.00,WUHU216HW,2013-02-10 23:17:00,
2013-02-10 18:22:00,39.6,22.5,29.70,SSE,158,4.0,5.4,50,0.00,,,0.00,WUHU216HW,2013-02-10 23:22:00,
2013-02-10 18:27:00,39.4,22.3,29.70,SW,225,5.6,5.8,50,0.00,,,0.00,WUHU216HW,2013-02-10 23:27:00,
2013-02-10 18:32:00,39.2,22.1,29.70,SSE,158,6.5,6.5,50,0.00,,,0.00,WUHU216HW,2013-02-10 23:32:00,
2013-02-10 18:37:00,39.2,22.6,29.69,SSE,158,4.7,6.5,51,0.00,,,0.00,WUHU216HW,2013-02-10 23:37:00,
2013-02-10 18:42:00,39.2,22.6,29.69,SSE,158,7.2,7.2,51,0.00,,,0.00,WUHU216HW,2013-02-10 23:42:00,
2013-02-10 18:47:00,39.2,22.6,29.69,SSE,158,4.5,7.2,51,0.00,,,0.00,WUHU216HW,2013-02-10 23:47:00,
2013-02-10 18:52:00,39.2,22.6,29.69,SSE,158,4.5,7.2,51,0.00,,,0.00,WUHU216HW,2013-02-10 23:52:00,
2013-02-10 18:57:00,39.2,22.6,29.69,SSE,158,4.0,6.3,51,0.00,,,0.00,WUHU216HW,2013-02-10 23:57:00,
2013-02-10 19:02:00,39.2,22.6,29.69,SSE,158,4.7,6.3,51,0.00,,,0.00,WUHU216HW,2013-02-11 00:02:00,
2013-02-10 19:07:00,39.4,22.8,29.69,SSE,158,3.6,4.9,51,0.00,,,0.00,WUHU216HW,2013-02-11 00:07:00,
2013-02-10 19:12:00,39.2,22.6,29.70,SE,135,4.7,4.7,51,0.00,,,0.00,WUHU216HW,2013-02-11 00:12:00,
2013-02-10 19:17:00,39.2,22.6,29.70,SE,135,2.7,5.6,51,0.00,,,0.00,WUHU216HW,2013-02-11 00:17:00,
2013-02-10 19:22:00,39.2,22.6,29.70,SSE,158,4.0,5.6,51,0.00,,,0.00,WUHU216HW,2013-02-11 00:22:00,
2013-02-10 19:27:00,39.2,22.6,29.71,SSE,158,4.7,5.1,51,0.00,,,0.00,WUHU216HW,2013-02-11 00:27:00,
2013-02-10 19:32:00,39.2,22.6,29.71,SE,135,2.9,5.4,51,0.00,,,0.00,WUHU216HW,2013-02-11 00:32:00,
2013-02-10 19:37:00,39.2,22.6,29.70,South,180,2.2,5.4,51,0.00,,,0.00,WUHU216HW,2013-02-11 00:37:00,
2013-02-10 19:42:00,39.1,22.9,29.71,South,180,2.5,3.8,52,0.00,,,0.00,WUHU216HW,2013-02-11 00:42:00,
2013-02-10 19:47:00,38.9,22.7,29.71,SE,135,2.9,3.8,52,0.00,,,0.00,WUHU216HW,2013-02-11 00:47:00,
2013-02-10 19:52:00,38.9,22.7,29.70,SSW,203,3.4,3.4,52,0.00,,,0.00,WUHU216HW,2013-02-11 00:52:00,
2013-02-10 19:57:00,38.7,22.5,29.70,SSE,158,2.7,4.0,52,0.00,,,0.00,WUHU216HW,2013-02-11 00:57:00,
2013-02-10 20:02:00,38.7,23.0,29.70,South,180,2.5,4.0,53,0.00,,,0.00,WUHU216HW,2013-02-11 01:02:00,
2013-02-10 20:07:00,38.7,23.0,29.70,SSE,158,2.2,3.4,53,0.00,,,0.00,WUHU216HW,2013-02-11 01:07:00,
2013-02-10 20:12:00,38.7,23.0,29.69,SSE,158,3.4,4.0,53,0.00,,,0.00,WUHU216HW,2013-02-11 01:12:00,
2013-02-10 20:17:00,38.7,23.0,29.70,SSE,158,2.0,4.0,53,0.00,,,0.00,WUHU216HW,2013-02-11 01:17:00,
2013-02-10 20:22:00,38.9,23.1,29.69,SE,135,2.5,7.2,53,0.00,,,0.00,WUHU216HW,2013-02-11 01:22:00,
2013-02-10 20:27:00,38.9,23.1,29.69,SSE,158,3.4,7.2,53,0.00,,,0.00,WUHU216HW,2013-02-11 01:27:00,
2013-02-10 20:32:00,38.9,23.1,29.69,SSW,203,3.4,5.8,53,0.00,,,0.00,WUHU216HW,2013-02-11 01:32:00,
2013-02-10 20:37:00,38.9,23.1,29.68,South,180,2.7,5.8,53,0.00,,,0.00,WUHU216HW,2013-02-11 01:37:00,
2013-02-10 20:42:00,38.9,23.1,29.68,South,180,3.1,3.6,53,0.00,,,0.00,WUHU216HW,2013-02-11 01:42:00,
2013-02-10 20:47:00,38.7,23.0,29.68,SE,135,3.6,4.3,53,0.00,,,0.00,WUHU216HW,2013-02-11 01:47:00,
2013-02-10 20:52:00,38.7,23.0,29.68,SE,135,3.6,4.3,53,0.00,,,0.00,WUHU216HW,2013-02-11 01:52:00,
2013-02-10 20:57:00,38.7,23.0,29.68,SSW,203,3.1,4.3,53,0.00,,,0.00,WUHU216HW,2013-02-11 01:57:00,
2013-02-10 21:02:00,38.9,23.1,29.68,SSE,158,3.8,4.3,53,0.00,,,0.00,WUHU216HW,2013-02-11 02:02:00,
2013-02-10 21:07:00,38.9,23.1,29.68,SSE,158,3.4,4.3,53,0.00,,,0.00,WUHU216HW,2013-02-11 02:07:00,
2013-02-10 21:12:00,38.9,23.6,29.67,SE,135,2.7,4.0,54,0.00,,,0.00,WUHU216HW,2013-02-11 02:12:00,
2013-02-10 21:17:00,38.9,23.6,29.66,SE,135,4.7,5.4,54,0.00,,,0.00,WUHU216HW,2013-02-11 02:17:00,
2013-02-10 21:22:00,39.1,23.3,29.66,SSE,158,4.0,5.4,53,0.00,,,0.00,WUHU216HW,2013-02-11 02:22:00,
2013-02-10 21:27:00,39.1,23.3,29.66,SE,135,3.1,4.9,53,0.00,,,0.00,WUHU216HW,2013-02-11 02:27:00,
2013-02-10 21:32:00,39.2,23.4,29.65,South,180,2.9,4.5,53,0.00,,,0.00,WUHU216HW,2013-02-11 02:32:00,
2013-02-10 21:37:00,39.2,23.4,29.65,SSE,158,2.5,6.0,53,0.00,,,0.00,WUHU216HW,2013-02-11 02:37:00,
2013-02-10 21:42:00,39.2,23.4,29.65,SW,225,5.6,6.0,53,0.00,,,0.00,WUHU216HW,2013-02-11 02:42:00,
2013-02-10 21:47:00,39.2,23.4,29.65,South,180,4.0,5.6,53,0.00,,,0.00,WUHU216HW,2013-02-11 02:47:00,
2013-02-10 21:52:00,39.2,23.4,29.65,SE,135,3.1,5.6,53,0.00,,,0.00,WUHU216HW,2013-02-11 02:52:00,
2013-02-10 21:57:00,39.2,23.4,29.65,South,180,2.9,5.6,53,0.00,,,0.00,WUHU216HW,2013-02-11 02:57:00,
2013-02-10 22:02:00,39.4,23.6,29.65,SE,135,3.4,3.4,53,0.00,,,0.00,WUHU216HW,2013-02-11 03:02:00,
2013-02-10 22:07:00,39.4,23.6,29.65,SE,135,3.1,6.9,53,0.00,,,0.00,WUHU216HW,2013-02-11 03:07:00,
2013-02-10 22:12:00,39.8,24.0,29.65,SSE,158,3.6,6.9,53,0.00,,,0.00,WUHU216HW,2013-02-11 03:12:00,
2013-02-10 22:17:00,39.8,24.0,29.65,SE,135,2.7,3.6,53,0.00,,,0.00,WUHU216HW,2013-02-11 03:17:00,
2013-02-10 22:22:00,39.8,24.0,29.64,SSW,203,3.4,6.9,53,0.00,,,0.00,WUHU216HW,2013-02-11 03:22:00,
2013-02-10 22:27:00,40.0,24.1,29.64,SE,135,4.7,6.9,53,0.00,,,0.00,WUHU216HW,2013-02-11 03:27:00,
2013-02-10 22:32:00,40.0,24.1,29.64,SE,135,3.4,4.7,53,0.00,,,0.00,WUHU216HW,2013-02-11 03:32:00,
2013-02-10 22:37:00,40.0,24.1,29.64,SE,135,5.1,6.5,53,0.00,,,0.00,WUHU216HW,2013-02-11 03:37:00,
2013-02-10 22:42:00,40.0,24.1,29.64,WSW,248,4.7,6.5,53,0.00,,,0.00,WUHU216HW,2013-02-11 03:42:00,
2013-02-10 22:47:00,40.1,24.3,29.64,SW,225,4.7,5.1,53,0.00,,,0.00,WUHU216HW,2013-02-11 03:47:00,
2013-02-10 22:52:00,40.3,24.0,29.64,ESE,113,4.0,4.7,52,0.00,,,0.00,WUHU216HW,2013-02-11 03:52:00,
2013-02-10 22:57:00,40.3,25.3,29.64,SSE,158,5.8,5.8,55,0.00,,,0.00,WUHU216HW,2013-02-11 03:57:00,
2013-02-10 23:02:00,40.1,26.5,29.64,SSW,203,5.6,6.3,58,0.00,,,0.00,WUHU216HW,2013-02-11 04:02:00,
2013-02-10 23:07:00,40.0,26.7,29.64,SW,225,6.3,7.4,59,0.00,,,0.00,WUHU216HW,2013-02-11 04:07:00,
2013-02-10 23:12:00,40.0,27.2,29.64,SW,225,7.6,7.6,60,0.00,,,0.00,WUHU216HW,2013-02-11 04:12:00,
2013-02-10 23:17:00,39.4,27.0,29.63,SSE,158,4.5,7.6,61,0.00,,,0.00,WUHU216HW,2013-02-11 04:17:00,
2013-02-10 23:22:00,39.4,27.0,29.63,SSW,203,4.7,7.6,61,0.00,,,0.00,WUHU216HW,2013-02-11 04:22:00,
2013-02-10 23:27:00,39.1,27.1,29.63,South,180,3.6,5.1,62,0.00,,,0.00,WUHU216HW,2013-02-11 04:27:00,
2013-02-10 23:32:00,38.9,27.3,29.63,SSW,203,5.1,5.1,63,0.01,,,0.01,WUHU216HW,2013-02-11 04:32:00,
2013-02-10 23:37:00,38.7,27.1,29.63,SSE,158,4.5,5.4,63,0.01,,,0.01,WUHU216HW,2013-02-11 04:37:00,
2013-02-10 23:42:00,38.5,27.7,29.62,East,90,3.4,5.4,65,0.01,,,0.01,WUHU216HW,2013-02-11 04:42:00,
2013-02-10 23:47:00,38.3,27.5,29.61,SE,135,4.3,4.9,65,0.01,,,0.01,WUHU216HW,2013-02-11 04:47:00,
2013-02-10 23:52:00,38.3,27.5,29.61,South,180,2.9,4.9,65,0.01,,,0.01,WUHU216HW,2013-02-11 04:52:00,
2013-02-10 23:57:00,38.2,27.7,29.61,SSW,203,4.0,6.9,66,0.01,,,0.01,WUHU216HW,2013-02-11 04:57:00,